Weather in Nagolnoe

Russia / Belgorod Oblast     49°58′07″N   38°59′29″E
temp.,
°C
wind,
m/s
gust,
m/s
humid.,
%
clouds,
%
prec.,
mm/h
press.,
hPa
HPBL,
m
26 february, fri
fri2600:00+2w51098100 0.3 1021278
03:00+2w4999100 0.5 1021171
06:00+2w3699100 0.2 1020138
09:00+2w47100100 0.3 1020132
12:00+4w51199100 0.0 1019255
15:00+5w61398100 0.0 1017406
18:00+5wsw7149897 0.0 1015431
21:00+4w6139799 0.1 1014326
27 february, sat
sat2700:00+3w51196100 0.0 1013352
03:00+2w51294100 0.0 1013438
06:00+2wnw51095100 0.0 1011466
09:00+2w51193100 0.0 1012548
12:00+3wnw6980100 0.1 1012902
15:00+4wnw697998 0.1 1012908
18:00+1wnw6109598 0.1 1012552
21:00+1nw599499 0.1 1013491
28 february, sun
sun2800:00+1nw489799 0.0 1014386
03:00+1nw379399 0.1 1015394
06:000nw4797100 0.1 1016425
09:00+1nnw4782100 0.3 1017748
12:00+2nnw467998 0.1 1017704
15:00+2nnw567396 0.1 1017894
18:000nnw367982 0.0 1018270
21:00−1w248689 0.0 1019141
1 march, mon
mon100:00−1wnw259585 0.0 1020179
03:00−1wnw249879 0.1 1021162
06:00−1n139780 0.1 1022138
09:00−1ne238877 0.1 1024291
12:00+1nne227775 0.0 1025553
15:00+1nnw227187 0.1 1025661
18:000nw127793 0.0 102521
21:00−1wnw238391 0.0 102696
2 march, tue
tue200:00−1w368182 0.0 1026270
03:00−1wsw5107891 0.0 1024506
06:00−1wsw71290100 0.3 1022602
09:00+1wsw71288100 0.3 1020601
12:00+2w81286100 0.0 1018828
15:00+2w71288100 0.0 1015741
18:00+2wnw61290100 0.0 1014596
21:00+1nw71186100 0.2 1015815